Tracking 30692 objects as of 16-Jun-2025
HD Live streaming from Space Station
objects crossing your sky now

GORIZONT 13

Track GORIZONT 13 now!
GORIZONT 13 is classified as:


NORAD ID: 17083
Int'l Code: 1986-090A
Perigee: 36,756.0 km
Apogee: 36,879.4 km
Inclination: 12.7 °
Period: 1,488.7 minutes
Semi major axis: 43188 km
RCS: 2.5139 m2 (large)
Launch date: November 18, 1986
Source: Commonwealth of Independent States (former USSR) (CIS)
Launch site: TYURATAM MISSILE AND SPACE COMPLEX (TTMTR)
Your satellite tracking list
Your tracking list is empty




NASA's NSSDC Master Catalog

Two Line Element Set (TLE):
1 17083U 86090A   25167.44053286 -.00000117  00000-0  00000-0 0  9995
2 17083  12.7455 331.0900 0014295 356.0420 295.4182  0.96726986115104
Source of the keplerian elements: AFSPC